Погода в Джибути

Джибути     11°34′27″N   43°08′42″E
темп.,
°C
ветер,
м/с
пор.,
м/с
влажн.,
%
обл.,
%
осадки,
мм/ч
давл.,
гПа
погр.,
м
27 ноября, сб
сб2700:00+27в2375100 0.0 1014514
03:00+27всв34756 0.4 1014458
06:00+27вюв33751 0.1 1015499
09:00+28в33660 0.1 1016963
12:00+29всв44650 0.0 1014651
15:00+28всв44680 0.0 1012561
18:00+28вюв33720 0.0 1013447
21:00+28в23740 0.0 1015491
28 ноября, вс
вс2800:00+27вюв22750 0.0 1014554
03:00+27вюв22760 0.0 1013389
06:00+26ююв23780 0.0 1014416
09:00+28вюв34685 0.0 1016897
12:00+29в55615 0.0 1014811
15:00+29в55615 0.0 1012703
18:00+28юв44622 0.0 1012614
21:00+28вюв34640 0.0 1015696
29 ноября, пн
пн2900:00+27вюв33650 0.0 1014522
03:00+27ююв23660 0.0 1013500
06:00+26ююв34695 0.0 1015492
09:00+28юв55618 0.0 10161148
12:00+29в66570 0.0 1015971
15:00+28в55585 0.0 1012811
18:00+28вюв45605 0.0 1013697
21:00+27юв34630 0.0 1016582
30 ноября, вт
вт3000:00+27юв33650 0.0 1015537
03:00+26ююв33675 0.0 1013551
06:00+25ю33715 0.0 1014359
09:00+27юв446419 0.0 1016952
12:00+28в56580 0.0 1014941
15:00+28в55595 0.0 1011823
18:00+27вюв45625 0.0 1012859
21:00+27юв45633 0.0 1014657
1 декабря, ср
ср100:00+27юв34650 0.0 1013532
03:00+26ююв34650 0.0 1012524
06:00+25ююв34670 0.0 1013466
09:00+27юв45600 0.0 10151037
12:00+28в66540 0.0 10121095
15:00+28в66530 0.0 10101051
18:00+27вюв56570 0.0 1011992
21:00+27юв45580 0.0 1013746